AE7VB Weather Reports


time (UTC)temp
C
wind
direction
speed
KPH
gust
KPH
rain 1hr
cm
rain 24hr
cm
rain mn
cm
humidity
%
barometer
mb
20260902043045 19 261 0.0 0.0 0.00 0.00 0.00 52 1011.6
20260902041539 19 86 0.0 3.2 0.00 0.00 0.00 53 1011.5
20260902040021 20 82 0.0 19.3 0.00 0.00 0.00 54 1011.4
20260902034603 20 135 0.0 4.8 0.00 0.00 0.00 53 1011.5
20260902033031 20 126 3.2 20.9 0.00 0.00 0.00 50 1011.4
20260902031519 20 123 3.2 22.5 0.00 0.00 0.00 48 1011.4
20260902030007 20 119 4.8 32.2 0.00 0.00 0.00 49 1011.3
20260902024551 20 141 4.8 32.2 0.00 0.00 0.00 50 1011.3
20260902023038 20 148 6.4 25.7 0.00 0.00 0.00 51 1011.5
20260902021509 21 135 0.0 3.2 0.00 0.00 0.00 49 1011.7
20260902020101 21 138 1.6 20.9 0.00 0.00 0.00 47 1012.0
20260902014552 21 106 0.0 22.5 0.00 0.00 0.00 46 1012.0
20260902013045 22 78 1.6 14.5 0.00 0.00 0.00 44 1011.9
20260902011545 22 31 1.6 16.1 0.00 0.00 0.00 41 1012.0
20260902010036 23 67 0.0 4.8 0.00 0.00 0.00 40 1012.0
20260902004519 23 92 0.0 14.5 0.00 0.00 0.00 39 1011.9
20260902003059 23 93 1.6 17.7 0.00 0.00 0.00 39 1011.9
20260902001555 22 111 1.6 16.1 0.00 0.00 0.00 41 1012.2
20260902000036 22 97 0.0 17.7 0.00 0.00 0.00 41 1012.4
20260901234513 22 71 4.8 24.1 0.00 0.00 0.00 40 1012.7
20260901233002 22 63 1.6 4.8 0.00 0.00 0.00 41 1012.9
20260901231556 23 60 1.6 19.3 0.00 0.00 0.00 38 1013.0
20260901230053 23 79 0.0 17.7 0.00 0.00 0.00 37 1013.0
20260901224540 24 79 0.0 14.5 0.00 0.00 0.00 36 1013.0
20260901223016 24 290 1.6 11.3 0.00 0.00 0.00 34 1013.0
20260901221604 23 254 0.0 12.9 0.00 0.00 0.00 35 1013.1
20260901221501 23 244 0.0 12.9 0.00 0.00 0.00 35 1013.2
20260901220109 23 275 0.0 19.3 0.00 0.00 0.00 39 1013.4
20260901214533 23 265 3.2 16.1 0.00 0.00 0.00 38 1013.5
20260901213032 23 293 1.6 20.9 0.00 0.00 0.00 37 1013.8
20260901210047 23 296 3.2 25.7 0.00 0.00 0.00 35 1013.9
20260901204544 23 250 1.6 14.5 0.00 0.00 0.00 35 1013.9
20260901203037 25 211 1.6 27.4 0.00 0.00 0.00 29 1014.1
20260901201513 25 248 1.6 29.0 0.00 0.00 0.00 28 1014.0
20260901200058 26 238 1.6 14.5 0.00 0.00 0.00 27 1013.7
20260901194559 26 225 4.8 25.7 0.00 0.00 0.00 24 1013.8
20260901193038 27 223 1.6 25.7 0.00 0.00 0.00 22 1013.6
20260901191531 27 248 3.2 22.5 0.00 0.00 0.00 23 1013.7
20260901190014 29 243 6.4 19.3 0.00 0.00 0.00 21 1013.4
20260901184509 28 225 3.2 24.1 0.00 0.00 0.00 22 1013.8
20260901183043 26 234 4.8 22.5 0.00 0.00 0.00 24 1013.7
20260901181539 26 211 4.8 19.3 0.00 0.00 0.00 23 1013.6
20260901180006 25 209 0.0 8.0 0.00 0.00 0.00 24 1013.6
20260901174552 23 145 0.0 3.2 0.00 0.00 0.00 28 1013.6
20260901173046 23 347 0.0 1.6 0.00 0.00 0.00 27 1013.4
20260901171528 23 49 0.0 0.0 0.00 0.00 0.00 28 1013.4
20260901170015 22 48 0.0 0.0 0.00 0.00 0.00 29 1013.3
20260901164504 22 28 0.0 3.2 0.00 0.00 0.00 30 1013.2
20260901163043 21 302 0.0 3.2 0.00 0.00 0.00 31 1013.2
20260901161533 21 288 0.0 1.6 0.00 0.00 0.00 33 1013.3
20260901160057 20 286 0.0 0.0 0.00 0.00 0.00 35 1013.5
20260901154552 18 290 0.0 0.0 0.00 0.00 0.00 37 1013.5
20260901153025 17 287 0.0 0.0 0.00 0.00 0.00 40 1013.6
20260901151512 17 263 0.0 0.0 0.00 0.00 0.00 41 1013.6
20260901150104 16 271 0.0 6.4 0.00 0.00 0.00 42 1013.7
20260901144545 16 243 1.6 6.4 0.00 0.00 0.00 42 1013.7
20260901143038 15 274 0.0 0.0 0.00 0.00 0.00 43 1013.8
20260901141520 15 275 0.0 0.0 0.00 0.00 0.00 44 1013.9
20260901140009 15 290 0.0 6.4 0.00 0.00 0.00 44 1013.9
20260901134550 14 88 0.0 9.7 0.00 0.00 0.00 46 1013.4
20260901133040 13 219 3.2 9.7 0.00 0.00 0.00 48 1014.3
20260901131522 11 229 0.0 0.0 0.00 0.00 0.00 53 1014.1
20260901130016 11 223 0.0 1.6 0.00 0.00 0.00 55 1014.2
20260901124518 11 223 0.0 0.0 0.00 0.00 0.00 53 1014.2
20260901123103 11 222 0.0 0.0 0.00 0.00 0.00 52 1014.2
20260901121559 12 223 0.0 0.0 0.00 0.00 0.00 51 1014.4
20260901120023 12 90 0.0 0.0 0.00 0.00 0.00 49 1014.6
20260901114535 12 92 0.0 0.0 0.00 0.00 0.00 49 1014.7
20260901113017 12 91 0.0 0.0 0.00 0.00 0.00 50 1014.7
20260901111503 12 90 0.0 6.4 0.00 0.00 0.00 52 1014.7
20260901110058 12 128 0.0 0.0 0.00 0.00 0.00 52 1014.6
20260901104553 12 158 0.0 0.0 0.00 0.00 0.00 54 1014.7
20260901103027 12 163 0.0 4.8 0.00 0.00 0.00 54 1014.6
20260901101518 12 179 0.0 3.2 0.00 0.00 0.00 52 1014.7
20260901100055 12 226 0.0 0.0 0.00 0.00 0.00 50 1014.8
20260901094542 13 225 0.0 0.0 0.00 0.00 0.00 49 1014.7
20260901093023 13 225 0.0 3.2 0.00 0.00 0.00 49 1014.7
20260901091508 13 226 0.0 0.0 0.00 0.00 0.00 49 1014.8
20260901090054 13 227 0.0 3.2 0.00 0.00 0.00 48 1014.9
20260901084558 13 229 0.0 4.8 0.00 0.00 0.00 47 1015.0
20260901083033 13 226 0.0 0.0 0.00 0.00 0.00 48 1015.0
20260901081523 13 225 0.0 3.2 0.00 0.00 0.00 48 1015.1
20260901080010 13 229 0.0 0.0 0.00 0.00 0.00 47 1015.3
20260901074601 13 150 0.0 0.0 0.00 0.00 0.00 46 1015.1
20260901073042 14 150 0.0 0.0 0.00 0.00 0.00 46 1015.3
20260901071537 14 150 0.0 0.0 0.00 0.00 0.00 45 1015.4
20260901070012 15 150 0.0 1.6 0.00 0.00 0.00 44 1015.4
20260901064502 15 150 0.0 0.0 0.00 0.00 0.00 44 1015.5
20260901063109 15 150 0.0 1.6 0.00 0.00 0.00 42 1015.6
20260901061548 15 150 0.0 0.0 0.00 0.00 0.00 42 1015.8
20260901060037 15 150 0.0 0.0 0.00 0.00 0.00 40 1015.8
20260901054525 15 130 0.0 0.0 0.00 0.00 0.00 40 1016.0
20260901053010 16 130 0.0 0.0 0.00 0.00 0.00 39 1016.1
20260901051615 16 131 0.0 0.0 0.00 0.00 0.00 38 1016.4
20260901050046 16 130 0.0 0.0 0.00 0.00 0.00 38 1016.5
20260901044541 16 130 0.0 0.0 0.00 0.00 0.00 38 1016.6